Погода в Долгорукове

Россия / Пензенская область     53°36′59″N   44°14′25″E
темп.,
°C
ветер,
м/с
пор.,
м/с
влажн.,
%
обл.,
%
осадки,
мм/ч
давл.,
гПа
погр.,
м
22 апреля, чт
чт2200:00+6ююз499087 0.0 1018332
03:00+6ю3893100 0.0 1018220
06:00+6ю499196 0.0 1019219
09:00+10ююз69746 0.4 1020798
12:00+12юз796035 1.2 10201634
15:00+12зюз5758100 1.4 10201524
18:00+11зюз236635 0.0 1021146
21:00+8юз22734 0.0 102315
23 апреля, пт
пт2300:00+7ю22775 0.0 102316
03:00+6ююв338217 0.0 102323
06:00+7юв3479100 0.0 102375
09:00+10юв346862 0.0 1023202
12:00+15ююв334592 0.0 10212064
15:00+15вюв1244100 0.0 1020953
18:00+13вюв356460 0.0 1018108
21:00+10ю238165 0.5 101866
24 апреля, сб
сб2400:00+8ююв228998 0.1 101618
03:00+7ююв3390100 0.1 101539
06:00+7ююв3590100 0.0 1013138
09:00+11ю576961 0.1 1012811
12:00+14ю6756100 0.3 10091497
15:00+12юз7871100 2.2 10081545
18:00+6з5785100 1.4 1010769
21:00+6з5775100 1.5 1011995
25 апреля, вс
вс2500:00+6зюз3569100 0.0 1010132
03:00+4зюз5790100 0.5 1010565
06:00+5зюз4688100 1.1 1011361
09:00+8з465775 1.4 10121174
12:00+10зюз5748100 0.6 10131979
15:00+9з885998 2.0 10141515
18:00+7з696116 0.8 10151111
21:00+4зюз410705 1.0 1017284
26 апреля, пн
пн2600:00+3юз411780 0.0 1018310
03:00+2юз38844 0.0 1018162
06:00+2ююз378268 0.0 1018228
09:00+7юз586357 0.0 1018855
12:00+9юз61054100 0.0 10161994
15:00+11юз6947100 0.1 10151973
18:00+10ююз4757100 0.1 1014317
21:00+7ю5126782 0.1 1013293